Time[GMT],dominant_wave_period[s](0m),mean_wave_direction[degrees](0m),max_wave_height[m](0m),significant_wave_height[m](0m),mean_wave_direction_spread[degrees](0m)
2016-04-26 13:00,11.1,23.50,1.36,0.80,34.00
2016-04-26 14:00,5.1,17.50,1.74,0.88,34.00
2016-04-26 15:00,5.1,15.50,1.49,0.88,34.00
2016-04-26 16:00,5.0,19.50,1.36,0.86,36.00
2016-04-26 17:00,5.1,19.50,1.44,0.85,36.00
2016-04-26 18:00,5.1,15.50,1.43,0.92,36.00
2016-04-26 19:00,5.3,17.50,1.65,0.95,39.00
2016-04-26 20:00,5.7,12.50,1.76,0.93,39.00
2016-04-26 21:00,5.4,8.50,1.75,0.98,36.00
2016-04-26 22:00,5.6,5.50,1.77,0.90,38.00
2016-04-26 23:00,5.6,11.50,1.40,0.97,36.00
2016-04-27 00:00,5.6,5.50,1.44,0.94,34.00
2016-04-27 01:00,5.6,12.50,1.30,0.85,40.00
2016-04-27 02:00,11.8,12.50,1.30,0.87,38.00
2016-04-27 03:00,11.1,15.50,1.28,0.88,34.00
2016-04-27 04:00,11.8,16.50,1.20,0.81,36.00
2016-04-27 05:00,11.1,14.50,1.33,0.88,35.00
2016-04-27 06:00,11.1,10.50,1.46,0.98,35.00
2016-04-27 07:00,11.1,7.50,1.85,1.06,31.00
2016-04-27 08:00,11.1,8.50,1.70,1.07,32.00
2016-04-27 09:00,10.5,6.50,1.83,1.05,34.00
2016-04-27 10:00,10.5,6.50,1.90,1.10,34.00
2016-04-27 11:00,10.0,5.50,1.84,1.26,30.00
2016-04-27 12:00,11.1,6.50,1.73,1.23,29.00
2016-04-27 13:00,11.8,6.50,2.22,1.23,30.00
2016-04-27 14:00,11.8,9.50,1.96,1.29,29.00
2016-04-27 15:00,11.8,20.50,2.17,1.22,31.00
2016-04-27 16:00,10.5,25.50,2.02,1.31,34.00
2016-04-27 17:00,10.5,23.50,2.20,1.44,32.00
2016-04-27 18:00,11.1,29.50,2.31,1.40,32.00
2016-04-27 19:00,10.0,28.50,2.22,1.39,33.00
2016-04-27 20:00,9.5,34.50,2.41,1.45,30.00
2016-04-27 21:00,10.0,30.50,2.54,1.35,34.00
2016-04-27 22:00,10.5,28.50,2.37,1.21,29.00
2016-04-27 23:00,9.5,21.50,2.05,1.27,27.00
2016-04-28 00:00,11.1,20.50,2.20,1.19,31.00
2016-04-28 01:00,9.5,16.50,1.95,1.17,29.00
2016-04-28 02:00,11.1,17.50,1.48,1.07,29.00
2016-04-28 03:00,10.0,17.50,1.59,1.11,27.00
2016-04-28 04:00,9.5,20.50,1.87,1.11,30.00
2016-04-28 05:00,10.5,20.50,1.84,1.19,29.00
2016-04-28 06:00,8.7,20.50,1.97,1.19,30.00
2016-04-28 07:00,10.5,21.50,1.78,1.19,31.00
2016-04-28 08:00,10.5,27.50,1.77,1.19,30.00
2016-04-28 09:00,11.1,24.50,2.13,1.19,28.00
2016-04-28 10:00,10.0,26.50,1.95,1.26,25.00
2016-04-28 11:00,9.1,30.50,2.03,1.09,32.00
2016-04-28 12:00,10.0,28.50,1.94,1.18,33.00
2016-04-28 13:00,9.5,34.50,1.99,1.14,29.00
2016-04-28 14:00,10.5,29.50,1.82,1.26,27.00
2016-04-28 15:00,10.5,29.50,1.71,1.08,29.00
2016-04-28 16:00,10.5,28.50,2.14,1.18,26.00
2016-04-28 17:00,10.5,33.50,1.81,1.17,29.00
2016-04-28 18:00,10.0,36.50,2.23,1.25,27.00
2016-04-28 19:00,10.0,37.50,1.85,1.31,26.00
2016-04-28 20:00,10.5,35.50,2.19,1.27,25.00
2016-04-28 21:00,10.0,30.50,2.02,1.22,27.00
2016-04-28 22:00,10.5,27.50,2.14,1.26,25.00
2016-04-28 23:00,10.0,26.50,1.79,1.18,26.00
2016-04-29 00:00,10.5,27.50,1.67,1.08,31.00
2016-04-29 01:00,10.5,29.50,1.69,1.07,30.00
2016-04-29 02:00,10.0,25.50,1.80,1.21,28.00
2016-04-29 03:00,9.5,19.50,1.80,1.15,30.00
2016-04-29 04:00,10.0,24.50,1.83,1.13,29.00
2016-04-29 05:00,11.1,27.50,1.61,1.04,30.00
2016-04-29 06:00,10.5,24.50,2.02,1.19,28.00
2016-04-29 07:00,10.0,24.50,1.69,1.02,30.00
2016-04-29 08:00,10.0,25.50,1.74,1.16,26.00
2016-04-29 09:00,9.1,34.50,1.70,1.10,28.00
2016-04-29 10:00,10.5,35.50,1.52,1.06,29.00
2016-04-29 11:00,9.5,33.50,1.78,1.10,28.00
2016-04-29 12:00,9.1,35.50,2.11,1.07,30.00
2016-04-29 13:00,9.5,42.50,1.53,0.97,32.00
2016-04-29 14:00,10.0,35.50,1.67,1.06,27.00
2016-04-29 15:00,10.5,29.50,1.88,1.02,26.00
2016-04-29 16:00,9.5,38.50,1.53,0.90,32.00
2016-04-29 17:00,11.1,41.50,1.81,1.11,30.00
2016-04-29 18:00,10.5,36.50,1.68,1.02,30.00
2016-04-29 19:00,9.5,41.50,1.43,1.01,30.00
2016-04-29 20:00,10.5,43.50,1.57,0.88,29.00
2016-04-29 21:00,10.5,42.50,1.48,0.85,30.00
2016-04-29 22:00,10.5,41.50,1.38,0.88,26.00
2016-04-29 23:00,9.5,38.50,1.43,0.86,27.00
2016-04-30 00:00,10.5,37.50,1.29,0.90,25.00
2016-04-30 01:00,10.0,36.50,1.34,0.84,29.00
2016-04-30 02:00,10.0,34.50,1.32,0.88,25.00
2016-04-30 03:00,10.0,37.50,1.22,0.75,29.00
2016-04-30 04:00,10.0,39.50,1.11,0.76,34.00
2016-04-30 05:00,10.5,34.50,1.15,0.86,27.00
2016-04-30 06:00,9.5,34.50,1.37,0.86,28.00
2016-04-30 07:00,10.0,34.50,1.05,0.74,32.00
2016-04-30 08:00,10.5,37.50,1.38,0.81,30.00
2016-04-30 09:00,10.0,33.50,1.20,0.87,28.00
2016-04-30 10:00,10.5,37.50,1.40,0.84,29.00
2016-04-30 11:00,9.5,36.50,1.29,0.80,30.00
2016-04-30 12:00,9.5,40.50,1.18,0.71,31.00
2016-04-30 13:00,10.0,37.50,1.46,0.77,31.00
2016-04-30 14:00,11.1,35.50,1.04,0.71,33.00
2016-04-30 15:00,11.1,36.50,1.30,0.81,31.00
2016-04-30 16:00,9.5,40.50,1.18,0.75,31.00
2016-04-30 17:00,9.1,38.50,1.34,0.74,31.00
2016-04-30 18:00,10.0,51.50,1.41,0.95,32.00
2016-04-30 19:00,5.3,54.50,2.03,1.05,28.00
2016-04-30 20:00,5.4,58.50,1.90,1.18,31.00
2016-04-30 21:00,5.6,58.50,1.92,1.29,26.00
2016-04-30 22:00,5.9,58.50,2.13,1.30,24.00
2016-04-30 23:00,6.1,63.50,1.87,1.21,25.00
2016-05-01 00:00,5.9,61.50,2.10,1.19,23.00
2016-05-01 01:00,6.1,57.50,1.81,1.06,27.00
2016-05-01 02:00,5.7,58.50,1.72,1.02,23.00
2016-05-01 03:00,5.7,58.50,1.71,0.92,27.00
2016-05-01 04:00,5.7,57.50,1.45,0.95,25.00
2016-05-01 05:00,5.7,61.50,1.37,0.91,25.00
2016-05-01 06:00,9.1,53.50,1.19,0.80,27.00
2016-05-01 07:00,9.5,49.50,1.23,0.73,27.00
2016-05-01 08:00,8.7,50.50,1.07,0.73,28.00
2016-05-01 09:00,9.5,46.50,1.29,0.75,25.00
2016-05-01 10:00,10.0,48.50,1.15,0.76,26.00
2016-05-01 11:00,8.7,52.50,1.21,0.75,27.00
2016-05-01 12:00,10.0,52.50,1.07,0.75,28.00
2016-05-01 13:00,10.0,58.50,1.37,0.77,28.00
2016-05-01 14:00,9.5,55.50,1.17,0.78,30.00
2016-05-01 15:00,9.5,53.50,1.33,0.77,34.00
2016-05-01 16:00,9.1,49.50,1.19,0.71,33.00
2016-05-01 17:00,9.1,45.50,1.25,0.65,35.00
2016-05-01 18:00,9.5,49.50,0.99,0.66,33.00
2016-05-01 19:00,8.7,54.50,1.12,0.83,33.00
2016-05-01 20:00,4.4,54.50,1.17,0.78,31.00
2016-05-01 21:00,8.7,53.50,1.44,0.85,29.00
2016-05-01 22:00,5.0,54.50,1.40,0.87,28.00
2016-05-01 23:00,5.6,58.50,1.37,0.91,31.00
2016-05-02 00:00,5.7,63.50,1.55,0.95,27.00
2016-05-02 01:00,5.4,61.50,1.47,0.87,27.00
2016-05-02 02:00,5.1,57.50,1.48,0.92,25.00
2016-05-02 03:00,5.4,61.50,1.40,0.83,28.00
2016-05-02 04:00,5.3,62.50,1.38,0.87,28.00
2016-05-02 05:00,5.0,58.50,1.09,0.73,28.00
2016-05-02 06:00,5.3,58.50,1.24,0.80,30.00
2016-05-02 07:00,5.3,64.50,1.50,0.81,25.00
2016-05-02 08:00,5.0,60.50,1.25,0.73,26.00
2016-05-02 09:00,9.5,55.50,1.25,0.75,27.00
2016-05-02 10:00,8.3,58.50,1.20,0.75,30.00
2016-05-02 11:00,8.7,54.50,1.25,0.77,25.00
2016-05-02 12:00,8.3,55.50,1.03,0.67,33.00
2016-05-02 13:00,7.7,58.50,1.10,0.67,31.00
2016-05-02 14:00,7.4,60.50,1.05,0.70,28.00
2016-05-02 15:00,9.5,60.50,1.18,0.77,30.00
2016-05-02 16:00,4.5,65.50,1.24,0.91,32.00
2016-05-02 17:00,4.5,60.50,1.25,0.85,31.00
2016-05-02 18:00,4.5,61.50,1.11,0.81,32.00
2016-05-02 19:00,5.3,64.50,1.30,0.94,28.00
2016-05-02 20:00,5.1,69.50,1.36,0.95,30.00
2016-05-02 21:00,5.1,66.50,1.39,0.93,29.00
2016-05-02 22:00,4.8,63.50,1.53,0.96,28.00
2016-05-02 23:00,4.4,63.50,1.44,0.85,35.00
2016-05-03 00:00,4.7,65.50,1.27,0.87,32.00
2016-05-03 01:00,4.8,56.50,1.61,0.86,31.00
2016-05-03 02:00,4.7,59.50,1.59,0.84,28.00
2016-05-03 03:00,5.1,54.50,1.40,0.87,29.00
2016-05-03 04:00,4.9,53.50,1.28,0.87,29.00
2016-05-03 05:00,5.0,50.50,1.38,0.79,30.00
2016-05-03 06:00,5.4,50.50,1.18,0.78,30.00
2016-05-03 07:00,5.1,56.50,1.43,0.78,30.00
2016-05-03 08:00,5.9,55.50,1.35,0.83,28.00
2016-05-03 09:00,5.4,54.50,1.20,0.78,28.00
2016-05-03 10:00,5.6,52.50,1.39,0.77,30.00
2016-05-03 11:00,5.6,52.50,1.21,0.83,30.00
2016-05-03 12:00,9.1,49.50,1.17,0.81,30.00
2016-05-03 13:00,5.3,53.50,1.35,0.83,30.00
2016-05-03 14:00,5.7,53.50,1.40,0.78,31.00
2016-05-03 15:00,9.5,51.50,1.49,0.87,32.00
2016-05-03 16:00,5.4,53.50,1.74,0.96,36.00
2016-05-03 17:00,10.5,55.50,1.54,1.00,35.00
2016-05-03 18:00,4.8,55.50,1.56,1.02,32.00
2016-05-03 19:00,4.7,51.50,1.67,1.03,33.00
2016-05-03 20:00,9.5,52.50,1.55,0.96,31.00
2016-05-03 21:00,9.1,49.50,1.54,1.00,31.00
2016-05-03 22:00,5.4,51.50,1.81,0.94,32.00
2016-05-03 23:00,5.3,52.50,1.56,0.96,31.00
2016-05-04 00:00,10.5,51.50,1.68,0.92,34.00
2016-05-04 01:00,8.7,51.50,1.75,0.99,31.00
2016-05-04 02:00,5.4,52.50,1.59,0.96,33.00
2016-05-04 03:00,10.5,49.50,1.60,0.88,34.00
2016-05-04 04:00,10.0,48.50,1.56,0.98,34.00
2016-05-04 05:00,5.0,46.50,1.55,0.95,33.00
2016-05-04 06:00,10.0,39.50,1.85,1.04,29.00
2016-05-04 07:00,5.3,41.50,1.71,1.05,30.00
2016-05-04 08:00,5.7,42.50,1.83,1.03,29.00
2016-05-04 09:00,9.5,41.50,1.54,1.00,30.00
2016-05-04 10:00,5.4,46.50,1.43,0.90,32.00
2016-05-04 11:00,9.5,42.50,1.71,1.05,34.00
2016-05-04 12:00,10.0,43.50,1.79,1.14,31.00
2016-05-04 13:00,10.0,48.50,1.46,0.95,35.00
2016-05-04 14:00,9.5,49.50,1.80,1.15,32.00
2016-05-04 15:00,9.1,52.50,1.85,1.06,32.00
2016-05-04 16:00,5.3,55.50,1.77,1.05,35.00
2016-05-04 17:00,9.5,53.50,1.70,1.20,30.00
2016-05-04 18:00,9.1,52.50,1.70,1.13,32.00
2016-05-04 19:00,9.1,54.50,2.04,1.13,31.00
2016-05-04 20:00,9.5,53.50,1.49,1.03,32.00
2016-05-04 21:00,9.5,52.50,1.58,1.01,32.00
2016-05-04 22:00,9.1,48.50,1.38,0.94,33.00
2016-05-04 23:00,10.5,48.50,1.39,0.89,32.00
2016-05-05 00:00,8.7,46.50,1.85,0.89,28.00
2016-05-05 01:00,9.5,42.50,1.30,0.92,29.00
2016-05-05 02:00,9.5,43.50,1.27,0.88,32.00
2016-05-05 03:00,9.5,50.50,1.74,0.84,31.00
2016-05-05 04:00,10.0,49.50,1.48,0.91,29.00
2016-05-05 05:00,9.5,49.50,1.25,0.84,32.00
2016-05-05 06:00,10.0,48.50,1.54,0.84,30.00
2016-05-05 07:00,9.1,48.50,1.47,0.85,31.00
2016-05-05 08:00,9.5,52.50,1.44,0.94,28.00
2016-05-05 09:00,9.5,50.50,1.54,0.98,27.00
2016-05-05 10:00,9.5,55.50,1.66,0.93,31.00
2016-05-05 11:00,5.1,56.50,1.47,1.02,29.00
2016-05-05 12:00,5.1,55.50,1.38,0.95,29.00
2016-05-05 13:00,5.6,55.50,1.73,1.01,27.00
2016-05-05 14:00,5.3,57.50,1.80,0.99,30.00
2016-05-05 15:00,5.3,59.50,1.96,1.07,27.00
2016-05-05 16:00,9.5,60.50,1.56,1.05,30.00
2016-05-05 17:00,5.0,60.50,1.79,1.06,28.00
2016-05-05 18:00,5.4,61.50,1.87,1.20,27.00
2016-05-05 19:00,4.4,65.50,1.58,1.02,29.00
2016-05-05 20:00,5.3,59.50,1.60,0.96,28.00
2016-05-05 21:00,5.0,60.50,1.61,0.92,28.00
2016-05-05 22:00,5.3,56.50,1.31,0.92,29.00
2016-05-05 23:00,5.4,55.50,1.48,0.95,30.00
2016-05-06 00:00,4.9,59.50,1.81,0.94,25.00
2016-05-06 01:00,5.1,60.50,1.69,0.93,26.00
2016-05-06 02:00,8.7,61.50,1.49,0.90,26.00
2016-05-06 03:00,5.0,64.50,1.28,0.92,26.00
2016-05-06 04:00,5.3,61.50,1.72,1.01,27.00
2016-05-06 05:00,5.9,62.50,1.52,0.99,26.00
2016-05-06 06:00,5.4,65.50,1.61,0.99,25.00
2016-05-06 07:00,6.3,63.50,1.57,1.00,25.00
2016-05-06 08:00,5.7,64.50,1.74,0.95,26.00
2016-05-06 09:00,5.7,64.50,1.89,1.06,24.00
2016-05-06 10:00,6.7,60.50,1.65,1.10,25.00
2016-05-06 11:00,5.9,65.50,1.57,1.04,23.00
2016-05-06 12:00,5.7,65.50,1.61,1.03,27.00
2016-05-06 13:00,5.3,72.50,1.91,1.16,25.00
2016-05-06 14:00,6.7,63.50,1.64,1.05,26.00
2016-05-06 15:00,5.7,69.50,1.52,1.10,27.00
2016-05-06 16:00,6.3,66.50,1.87,1.18,22.00
2016-05-06 17:00,5.7,66.50,1.52,1.03,25.00
2016-05-06 18:00,5.4,64.50,1.97,1.05,23.00
2016-05-06 19:00,5.9,61.50,1.48,0.99,22.00
2016-05-06 20:00,6.3,61.50,1.79,1.07,20.00
2016-05-06 21:00,6.3,63.50,1.49,0.96,24.00
2016-05-06 22:00,6.3,63.50,1.77,0.93,24.00
2016-05-06 23:00,5.9,59.50,1.76,0.98,23.00
2016-05-07 00:00,5.1,64.50,1.54,0.95,22.00
2016-05-07 01:00,8.7,61.50,1.53,0.95,22.00
2016-05-07 02:00,9.5,61.50,1.48,0.97,23.00
2016-05-07 03:00,8.7,62.50,1.38,0.96,23.00
2016-05-07 04:00,6.9,63.50,1.96,1.05,23.00
2016-05-07 05:00,6.9,59.50,1.37,0.94,24.00
2016-05-07 06:00,12.5,59.50,1.70,0.97,26.00
2016-05-07 07:00,7.1,62.50,1.62,1.04,24.00
2016-05-07 08:00,7.1,64.50,1.67,1.04,23.00
2016-05-07 09:00,7.4,63.50,1.57,1.03,25.00
2016-05-07 10:00,6.9,66.50,1.64,1.11,22.00
2016-05-07 11:00,7.1,69.50,1.57,1.09,24.00
2016-05-07 12:00,6.3,66.50,2.00,1.06,24.00
2016-05-07 13:00,7.1,66.50,1.83,1.14,26.00
2016-05-07 14:00,6.7,67.50,1.83,1.25,25.00
2016-05-07 15:00,6.9,61.50,2.07,1.18,25.00
2016-05-07 16:00,7.1,63.50,2.26,1.29,23.00
2016-05-07 17:00,7.1,58.50,2.10,1.25,23.00
2016-05-07 18:00,6.9,62.50,2.42,1.24,22.00
2016-05-07 19:00,7.1,62.50,1.95,1.28,22.00
2016-05-07 20:00,6.7,63.50,2.24,1.31,21.00
2016-05-07 21:00,6.7,59.50,1.64,1.17,21.00
2016-05-07 22:00,6.7,58.50,1.85,1.01,24.00
2016-05-07 23:00,7.1,60.50,1.51,0.96,28.00
2016-05-08 00:00,6.7,60.50,1.64,1.11,25.00
2016-05-08 01:00,7.1,60.50,1.74,1.12,31.00
2016-05-08 02:00,7.7,61.50,2.08,1.19,25.00
2016-05-08 03:00,8.3,66.50,1.62,1.04,25.00
2016-05-08 04:00,7.7,67.50,1.92,1.14,20.00
2016-05-08 05:00,7.4,63.50,1.88,1.10,22.00
2016-05-08 06:00,8.0,61.50,1.81,1.07,27.00
2016-05-08 07:00,8.0,64.50,2.14,1.09,24.00
2016-05-08 08:00,8.3,60.50,1.49,0.96,28.00
2016-05-08 09:00,7.7,64.50,1.94,1.10,25.00
2016-05-08 10:00,7.7,41.50,1.85,1.00,32.00
2016-05-08 11:00,8.3,33.50,1.84,0.95,33.00
2016-05-08 12:00,7.4,42.50,1.69,0.98,32.00
2016-05-08 13:00,7.7,50.50,1.45,0.94,33.00
2016-05-08 14:00,7.7,51.50,1.57,0.98,36.00
2016-05-08 15:00,8.7,41.50,1.58,1.01,37.00
2016-05-08 16:00,8.3,43.50,1.60,0.91,38.00
2016-05-08 17:00,8.0,33.50,1.92,0.98,37.00
2016-05-08 18:00,9.1,37.50,1.89,1.04,37.00
2016-05-08 19:00,7.4,42.50,1.81,1.11,34.00
2016-05-08 20:00,9.1,40.50,1.88,1.06,40.00
2016-05-08 21:00,8.3,29.50,2.04,1.17,41.00
2016-05-08 22:00,8.7,38.50,2.10,1.16,40.00
2016-05-08 23:00,9.1,41.50,1.97,1.30,40.00
2016-05-09 00:00,8.0,36.50,2.18,1.27,41.00
2016-05-09 01:00,8.3,43.50,1.70,1.13,42.00
2016-05-09 02:00,8.3,39.50,1.75,1.13,41.00
2016-05-09 03:00,9.1,41.50,1.92,1.16,40.00
2016-05-09 04:00,8.0,44.50,2.13,1.09,42.00
2016-05-09 05:00,8.7,52.50,1.67,1.04,38.00
2016-05-09 06:00,9.1,46.50,1.74,1.03,37.00
2016-05-09 07:00,8.3,47.50,1.50,1.01,36.00
2016-05-09 08:00,8.7,50.50,1.77,0.97,39.00
2016-05-09 09:00,9.1,48.50,1.96,0.95,38.00
2016-05-09 10:00,9.1,47.50,1.57,1.09,37.00
2016-05-09 11:00,7.4,49.50,1.69,1.16,36.00
2016-05-09 12:00,9.5,50.50,1.54,1.08,37.00
2016-05-09 13:00,9.5,48.50,1.79,1.25,34.00
2016-05-09 14:00,9.5,48.50,1.59,1.12,37.00
2016-05-09 15:00,9.1,51.50,2.12,1.13,33.00
2016-05-09 16:00,9.5,49.50,1.65,1.18,34.00
2016-05-09 17:00,10.0,50.50,1.78,1.14,38.00
2016-05-09 18:00,9.5,53.50,2.34,1.18,35.00
2016-05-09 19:00,9.5,54.50,1.58,1.13,37.00
2016-05-09 20:00,7.4,46.50,1.77,1.16,37.00
2016-05-09 21:00,9.5,45.50,2.00,1.25,33.00
2016-05-09 22:00,9.5,47.50,1.68,1.11,37.00
2016-05-09 23:00,9.1,47.50,1.80,1.22,33.00
2016-05-10 00:00,9.1,45.50,1.76,1.10,37.00
2016-05-10 01:00,9.1,45.50,2.06,1.27,34.00
2016-05-10 02:00,8.7,48.50,2.16,1.30,34.00
2016-05-10 03:00,9.1,44.50,2.05,1.35,35.00
2016-05-10 04:00,7.4,41.50,2.02,1.27,38.00
2016-05-10 05:00,9.5,41.50,2.18,1.31,35.00
2016-05-10 06:00,9.1,47.50,2.09,1.36,34.00
2016-05-10 07:00,9.1,47.50,2.59,1.50,33.00
2016-05-10 08:00,8.3,55.50,2.03,1.41,32.00
2016-05-10 09:00,9.1,50.50,2.53,1.36,30.00
2016-05-10 10:00,9.1,52.50,2.20,1.25,34.00
2016-05-10 11:00,5.9,60.50,2.33,1.49,31.00
2016-05-10 12:00,9.1,52.50,2.55,1.48,31.00
2016-05-10 13:00,9.1,58.50,2.82,1.53,29.00
2016-05-10 14:00,6.7,59.50,2.84,1.56,29.00
2016-05-10 15:00,6.3,62.50,2.60,1.59,26.00
2016-05-10 16:00,6.9,58.50,2.98,1.61,29.00
2016-05-10 17:00,6.5,57.50,2.58,1.68,27.00
2016-05-10 18:00,6.9,58.50,2.25,1.46,30.00
2016-05-10 19:00,7.1,58.50,2.32,1.57,27.00
2016-05-10 20:00,7.1,58.50,2.66,1.38,30.00
2016-05-10 21:00,9.1,55.50,2.39,1.30,29.00
2016-05-10 22:00,9.1,52.50,2.10,1.30,30.00
2016-05-10 23:00,9.1,55.50,1.74,1.22,29.00
2016-05-11 00:00,6.3,56.50,1.76,1.21,27.00
2016-05-11 01:00,6.5,54.50,1.98,1.22,29.00
2016-05-11 02:00,5.9,57.50,1.97,1.23,31.00
2016-05-11 03:00,5.9,56.50,2.06,1.26,31.00
2016-05-11 04:00,5.3,55.50,2.07,1.26,29.00
2016-05-11 05:00,6.5,54.50,2.05,1.25,29.00
2016-05-11 06:00,5.9,54.50,2.31,1.23,29.00
2016-05-11 07:00,6.7,51.50,2.01,1.24,31.00
2016-05-11 08:00,5.4,53.50,2.17,1.23,31.00
2016-05-11 09:00,6.5,53.50,1.97,1.28,29.00
2016-05-11 10:00,7.4,52.50,2.53,1.33,26.00
2016-05-11 11:00,8.7,54.50,2.44,1.34,29.00
2016-05-11 12:00,6.9,51.50,2.05,1.14,34.00
2016-05-11 13:00,6.7,55.50,2.10,1.35,29.00
2016-05-11 14:00,6.9,58.50,1.85,1.20,32.00
2016-05-11 15:00,8.7,54.50,2.14,1.30,29.00
2016-05-11 16:00,6.5,58.50,2.09,1.42,28.00
2016-05-11 17:00,6.7,60.50,2.08,1.30,32.00
2016-05-11 18:00,6.9,56.50,2.27,1.41,30.00
2016-05-11 19:00,8.3,58.50,2.25,1.27,31.00
2016-05-11 20:00,6.1,55.50,2.09,1.30,28.00
2016-05-11 21:00,6.7,52.50,2.01,1.21,31.00
2016-05-11 22:00,6.1,56.50,2.09,1.26,29.00
2016-05-11 23:00,9.1,55.50,1.96,1.21,27.00
2016-05-12 00:00,8.3,55.50,1.92,1.19,26.00
2016-05-12 01:00,8.7,53.50,1.86,1.20,28.00
2016-05-12 02:00,8.7,52.50,2.08,1.05,27.00
2016-05-12 03:00,8.7,55.50,1.97,1.30,26.00
2016-05-12 04:00,6.9,57.50,1.97,1.28,29.00
2016-05-12 05:00,6.3,56.50,2.17,1.32,28.00
2016-05-12 06:00,8.7,59.50,2.83,1.29,28.00
2016-05-12 07:00,6.7,61.50,2.15,1.20,30.00
2016-05-12 08:00,8.7,63.50,1.96,1.29,27.00
2016-05-12 09:00,8.0,63.50,1.75,1.14,31.00
2016-05-12 10:00,5.9,61.50,2.00,1.19,30.00
2016-05-12 11:00,5.9,59.50,2.08,1.19,31.00
2016-05-12 12:00,6.9,58.50,1.96,1.17,29.00
2016-05-12 13:00,7.7,61.50,2.52,1.26,27.00
2016-05-12 14:00,8.7,58.50,1.94,1.07,30.00
2016-05-12 15:00,5.9,57.50,2.13,1.12,30.00
2016-05-12 16:00,9.1,61.50,1.92,1.18,28.00
2016-05-12 17:00,8.7,60.50,2.04,1.25,26.00
2016-05-12 18:00,6.7,61.50,1.77,1.11,29.00
2016-05-12 19:00,8.3,62.50,1.78,1.14,28.00
2016-05-12 20:00,8.3,60.50,1.67,1.05,30.00
2016-05-12 21:00,8.7,58.50,1.85,1.13,28.00
2016-05-12 22:00,6.3,57.50,1.51,1.01,29.00
2016-05-12 23:00,5.6,54.50,1.57,1.07,29.00
2016-05-13 00:00,8.3,53.50,1.47,0.96,29.00
2016-05-13 01:00,8.3,52.50,1.65,1.06,30.00
2016-05-13 02:00,6.3,54.50,1.56,0.97,29.00
2016-05-13 03:00,8.0,56.50,1.88,0.98,26.00
2016-05-13 04:00,8.7,56.50,1.69,0.95,28.00
2016-05-13 05:00,8.7,57.50,1.81,1.03,27.00
2016-05-13 06:00,8.3,55.50,1.78,0.98,25.00
2016-05-13 07:00,8.3,60.50,1.56,1.03,25.00
2016-05-13 08:00,8.3,59.50,1.36,0.93,27.00
2016-05-13 09:00,8.7,57.50,1.78,0.99,28.00
2016-05-13 10:00,8.7,57.50,1.49,1.01,27.00
2016-05-13 11:00,7.7,58.50,1.71,1.08,24.00
2016-05-13 12:00,8.3,60.50,1.74,1.01,27.00
2016-05-13 13:00,8.3,60.50,1.62,1.08,27.00
2016-05-13 14:00,8.3,61.50,1.46,0.98,30.00
2016-05-13 15:00,8.0,63.50,1.72,1.05,27.00
2016-05-13 16:00,8.3,58.50,2.04,1.14,32.00
2016-05-13 17:00,5.7,58.50,1.75,1.00,29.00
2016-05-13 18:00,7.7,61.50,1.97,1.12,29.00
2016-05-13 19:00,5.7,60.50,1.62,1.04,30.00
2016-05-13 20:00,5.6,59.50,1.80,1.07,29.00
2016-05-13 21:00,8.7,60.50,1.76,1.03,29.00
2016-05-13 22:00,8.3,56.50,1.61,0.99,30.00
2016-05-13 23:00,5.3,57.50,1.90,1.00,32.00
2016-05-14 00:00,5.1,58.50,1.65,1.03,28.00
2016-05-14 01:00,7.7,55.50,1.41,1.02,29.00
2016-05-14 02:00,5.6,56.50,2.11,1.06,26.00
2016-05-14 03:00,5.4,55.50,1.58,1.10,29.00
2016-05-14 04:00,5.7,56.50,1.67,1.12,27.00
2016-05-14 05:00,5.6,58.50,1.64,1.09,27.00
2016-05-14 06:00,5.4,56.50,1.64,1.09,28.00
2016-05-14 07:00,15.4,55.50,1.90,1.10,29.00
2016-05-14 08:00,5.6,58.50,2.00,1.12,29.00
2016-05-14 09:00,5.6,59.50,1.68,1.07,28.00
2016-05-14 10:00,14.3,55.50,1.78,1.11,26.00
2016-05-14 11:00,14.3,58.50,1.56,1.02,27.00
2016-05-14 12:00,14.3,56.50,1.92,1.13,26.00
2016-05-14 13:00,14.3,57.50,2.09,1.09,25.00
2016-05-14 14:00,14.3,58.50,1.79,1.15,27.00
2016-05-14 15:00,14.3,56.50,1.75,1.10,29.00
2016-05-14 16:00,14.3,58.50,1.60,1.04,29.00
2016-05-14 17:00,14.3,56.50,1.61,1.16,30.00
2016-05-14 18:00,14.3,60.50,2.11,1.18,26.00
2016-05-14 19:00,14.3,57.50,1.83,1.16,27.00
2016-05-14 20:00,13.3,61.50,1.75,1.10,30.00
2016-05-14 21:00,12.5,60.50,1.74,1.02,29.00
2016-05-14 22:00,13.3,60.50,1.81,1.07,29.00
2016-05-14 23:00,12.5,58.50,1.69,0.97,28.00
2016-05-15 00:00,13.3,56.50,1.77,0.94,29.00
2016-05-15 01:00,13.3,54.50,1.62,0.93,25.00
2016-05-15 02:00,12.5,55.50,1.52,1.00,27.00
2016-05-15 03:00,13.3,54.50,1.32,0.90,26.00
2016-05-15 04:00,13.3,53.50,1.64,0.94,25.00
2016-05-15 05:00,13.3,52.50,1.50,0.88,27.00
2016-05-15 06:00,13.3,51.50,1.55,0.93,26.00
2016-05-15 07:00,11.8,56.50,1.39,0.94,25.00
2016-05-15 08:00,13.3,55.50,1.67,1.04,24.00
2016-05-15 09:00,13.3,53.50,1.44,0.95,25.00
2016-05-15 10:00,12.5,57.50,1.46,0.95,26.00
2016-05-15 11:00,13.3,60.50,1.48,0.96,26.00
2016-05-15 12:00,5.4,59.50,1.80,0.99,27.00
2016-05-15 13:00,12.5,56.50,1.67,1.00,27.00
2016-05-15 14:00,13.3,58.50,1.49,0.96,27.00
2016-05-15 15:00,11.8,65.50,1.75,1.01,28.00
2016-05-15 16:00,5.4,65.50,1.67,1.11,27.00
2016-05-15 17:00,5.9,65.50,1.96,1.14,27.00
2016-05-15 18:00,6.5,64.50,2.28,1.16,26.00
2016-05-15 19:00,6.1,61.50,1.79,1.14,29.00
2016-05-15 20:00,5.9,62.50,1.94,1.14,27.00
2016-05-15 21:00,5.7,62.50,1.94,1.09,25.00
2016-05-15 22:00,5.9,61.50,1.98,1.04,27.00
2016-05-15 23:00,6.1,64.50,1.32,0.93,27.00
2016-05-16 00:00,6.1,60.50,1.67,0.90,31.00
2016-05-16 01:00,5.9,57.50,1.41,0.93,28.00
2016-05-16 02:00,6.1,60.50,1.33,0.89,27.00
2016-05-16 03:00,5.7,60.50,1.46,0.89,28.00
2016-05-16 04:00,6.3,55.50,1.37,0.88,27.00
2016-05-16 05:00,6.3,58.50,1.40,0.90,25.00
2016-05-16 06:00,5.9,60.50,1.52,0.95,25.00
2016-05-16 07:00,5.7,63.50,1.71,0.95,25.00
2016-05-16 08:00,5.9,63.50,1.40,0.95,25.00
2016-05-16 09:00,6.3,64.50,1.82,1.04,23.00
2016-05-16 10:00,5.7,65.50,2.46,1.16,25.00
2016-05-16 11:00,5.7,66.50,1.79,1.20,24.00
2016-05-16 12:00,6.3,60.50,1.46,1.01,29.00
2016-05-16 13:00,6.3,65.50,1.75,1.08,26.00
2016-05-16 14:00,6.3,65.50,1.87,1.13,26.00
2016-05-16 15:00,6.7,61.50,1.77,1.05,27.00
2016-05-16 16:00,6.3,62.50,1.82,1.18,27.00
2016-05-16 17:00,6.3,59.50,1.93,1.12,29.00
2016-05-16 18:00,6.5,62.50,1.67,1.11,30.00
2016-05-16 19:00,6.5,63.50,1.80,1.10,28.00
2016-05-16 20:00,6.3,64.50,1.60,1.10,28.00
2016-05-16 21:00,6.1,63.50,1.43,1.01,27.00
2016-05-16 22:00,6.3,61.50,2.09,0.98,30.00
2016-05-16 23:00,5.7,61.50,1.56,0.95,25.00
2016-05-17 00:00,6.1,63.50,1.55,0.99,27.00
2016-05-17 01:00,6.5,60.50,1.54,1.06,28.00
2016-05-17 02:00,6.1,60.50,1.62,1.06,26.00
2016-05-17 03:00,6.5,61.50,2.10,1.19,27.00
2016-05-17 04:00,6.7,60.50,1.74,1.19,27.00
2016-05-17 05:00,6.5,61.50,2.22,1.27,29.00
2016-05-17 06:00,6.3,61.50,1.90,1.25,26.00
2016-05-17 07:00,6.3,61.50,2.27,1.34,27.00
2016-05-17 08:00,6.3,61.50,2.19,1.24,28.00
2016-05-17 09:00,6.5,64.50,2.69,1.33,26.00
2016-05-17 10:00,6.5,64.50,2.13,1.23,29.00
2016-05-17 11:00,6.9,61.50,1.90,1.24,28.00
2016-05-17 12:00,6.5,60.50,1.90,1.16,33.00
2016-05-17 13:00,6.5,60.50,1.82,1.09,27.00
2016-05-17 14:00,6.1,60.50,1.41,1.02,32.00
2016-05-17 15:00,6.3,60.50,1.65,1.00,30.00
2016-05-17 16:00,6.3,59.50,1.86,1.03,30.00
2016-05-17 17:00,7.1,57.50,1.82,0.99,31.00
2016-05-17 18:00,6.5,59.50,1.76,1.06,30.00
2016-05-17 19:00,5.7,59.50,1.48,1.00,30.00
2016-05-17 20:00,6.5,61.50,1.81,1.07,30.00
2016-05-17 21:00,5.6,61.50,1.93,1.13,27.00
2016-05-17 22:00,5.9,61.50,1.88,1.03,30.00
2016-05-17 23:00,6.5,56.50,1.65,0.93,35.00
2016-05-18 00:00,6.1,56.50,1.29,0.94,29.00
2016-05-18 01:00,5.6,57.50,1.55,0.94,29.00
2016-05-18 02:00,6.1,63.50,1.56,0.92,29.00
2016-05-18 03:00,5.6,62.50,1.88,1.06,26.00
2016-05-18 04:00,5.6,64.50,1.80,1.12,29.00
2016-05-18 05:00,6.1,63.50,1.50,1.03,30.00
2016-05-18 06:00,6.7,66.50,1.67,0.98,30.00
2016-05-18 07:00,5.7,64.50,1.60,1.03,28.00
2016-05-18 08:00,5.7,63.50,1.54,1.06,26.00
2016-05-18 09:00,6.3,64.50,1.93,1.06,28.00
2016-05-18 10:00,6.7,63.50,1.80,1.06,27.00
2016-05-18 11:00,6.3,61.50,1.66,1.07,29.00
2016-05-18 12:00,6.3,61.50,1.65,1.07,32.00
2016-05-18 13:00,5.9,63.50,2.31,1.10,26.00
2016-05-18 14:00,6.7,61.50,1.99,1.10,28.00
2016-05-18 15:00,6.9,64.50,1.86,1.15,28.00
2016-05-18 16:00,6.7,65.50,1.76,1.14,28.00
2016-05-18 17:00,6.7,61.50,2.39,1.30,28.00
2016-05-18 18:00,7.4,59.50,1.79,1.26,30.00
2016-05-18 19:00,6.5,63.50,1.99,1.22,28.00
2016-05-18 20:00,6.7,60.50,2.41,1.26,28.00
2016-05-18 21:00,7.1,61.50,1.78,1.20,31.00
2016-05-18 22:00,7.1,62.50,1.62,1.15,28.00
2016-05-18 23:00,6.3,60.50,1.90,1.22,29.00